650  
NZUS93 KARX 281710  
HRRWXR  
 
CURRENT HOURLY OBSERVATIONS ACROSS  
MUCH OF THE UPPER MISSISSIPPI VALLEY  
NATIONAL WEATHER SERVICE LA CROSSE WI  
1200 PM CDT TUE JUL 28 2015  
 
   
..SOUTHEAST MINNESOTA
 
 
 
CITY SKY/WX TMP DP RH WIND PRES REMARKS  
ROCHESTER CLOUDY 73 70 90 SE16 29.91R  
ROCHESTER/MAYO FAIR 73 71 92 SE14G22 29.90R  
WINONA CLOUDY 72 70 94 S6 29.86R  
AUSTIN CLOUDY 75 72 88 SE12G24 29.86F  
ALBERT LEA CLOUDY 73 72 94 SE15G22 29.85F  
DODGE CENTER CLOUDY 73 70 88 SE13G18 29.88F  
PRESTON CLOUDY 71 69 92 SE7 29.91S  
OWATONNA CLOUDY 75 70 83 SE15 29.86F  
FARIBAULT CLOUDY 75 70 83 S10G22 29.86F  

 
   
..ELSEWHERE IN MINNESOTA
 
 
 
CITY SKY/WX TMP DP RH WIND PRES REMARKS  
MINNEAPOLIS CLOUDY 77 68 73 S12 29.84R  
INTNL FALLS CLOUDY 72 69 90 SE9 29.69F  
DULUTH PTSUNNY 78 68 71 SW21G30 29.79R  
RED WING CLOUDY 77 70 78 S8 29.84R  
REDWOOD FALLS MOSUNNY 76 69 79 S9 29.82F  
MANKATO CLOUDY 73 68 83 S6 29.86R  
WORTHINGTON MOSUNNY 75 68 78 S16G24 29.86R  
FAIRMONT CLOUDY 75 66 73 S12 29.85S  

 
   
..SOUTHWEST WISCONSIN
 
 
 
CITY SKY/WX TMP DP RH WIND PRES REMARKS  
LA CROSSE LGT RAIN 71 70 96 E17G25 29.85F FOG  
PRAIRIE DU CHI HVY RAIN 74 70 86 NE3 29.95R  
BOSCOBEL CLOUDY 78 72 81 SE3 29.95F  
LONE ROCK CLOUDY 79 71 76 CALM 29.98S  
PLATTEVILLE CLOUDY 78 74 85 S12 29.99S  
FORT MC COY LGT RAIN 71 68 93 SE3 29.95F  
CAMP DOUGLAS CLOUDY 73 73 100 S3 29.98S  
VIROQUA FAIR 71 71 100 CALM 29.99F  
WIS DELLS CLOUDY 81 66 60 S10 29.99R  

 
   
..ELSEWHERE IN WISCONSIN
 
 
 
CITY SKY/WX TMP DP RH WIND PRES REMARKS  
MILWAUKEE PTSUNNY 86 64 47 SE12 30.00F  
MADISON PTSUNNY 83 68 60 S13 29.97F  
GREEN BAY PTSUNNY 83 62 49 S10 30.00F  
EAU CLAIRE CLOUDY 76 68 76 S14 29.82S  
BLACK RVR FLS RAIN 73 73 100 SE12 29.91F  
MEDFORD CLOUDY 72 67 82 SE13G24 29.88F  
WAUSAU CLOUDY 78 64 61 S13G22 29.94F  
WIS RAPIDS LGT RAIN 76 66 71 S6 29.99F  
MARSHFIELD LGT RAIN 73 66 78 S14 29.94F  
RICE LAKE CLOUDY 76 69 80 S12G18 29.86R  

 
   
..NORTHEAST IOWA
 
 
 
CITY SKY/WX TMP DP RH WIND PRES REMARKS  
DECORAH CLOUDY 72 72 100 SE13G22 29.88F  
MASON CITY CLOUDY 74 73 97 SE7 29.88R  
CHARLES CITY CLOUDY 73 73 100 SE5 29.92R  
OELWEIN N/A 70 70 100 SE13G18 29.93F  

 
   
..ELSEWHERE IN IOWA
 
 
 
CITY SKY/WX TMP DP RH WIND PRES REMARKS  
DES MOINES CLOUDY 78 73 84 SE14G21 29.87F  
IOWA CITY TSTM 72 70 93 N18G33 30.03R VSB 1  
FORT DODGE CLOUDY 75 70 83 E9 29.85S  

 
   
..NORTHERN ILLINOIS
 
 
 
CITY SKY/WX TMP DP RH WIND PRES REMARKS  
CHICAGO-OHARE PTSUNNY 85 68 56 S5 29.98F  
CHICAGO-MIDWAY PTSUNNY 88 69 53 S6 29.98F HX 92  
MOLINE PTSUNNY 79 74 84 E9 29.98R  
ROCKFORD PTSUNNY 85 72 65 S8 29.99F HX 91  
PEORIA PTSUNNY 89 76 65 S6 29.97S HX 100  

 
 
NOTE: "FAIR" INDICATES FEW OR NO CLOUDS BELOW 12,000 FEET WITH NO  
SIGNIFICANT WEATHER AND/OR OBSTRUCTIONS TO VISIBILITY. WIND  
SPEEDS ARE IN MILES-PER-HOUR.  
 
CLICK HERE TO GO TO PREVIOUS BULLETINS.

The Nexlab WI Page
The Nexlab IA Page
The Nexlab MN Page Main Text Page